Location: Corcelles
(46.1547°N, 4.7234°E)
Time: 08:47:25
(UTC+00:00)

COSMOS 2406 - Pass Details

Date: 14 July 2020
Orbit: 844 x 862 km, 71.0° (Epoch: 14 August)

Event Time Altitude Azimuth Distance (km) Brightness Sun altitude
Exits shadow 02:31:39 14° 246° (WSW) 2,248 4.9 -12.7°
Maximum altitude 02:36:06 35° 307° (NW) 1,368 4.3 -12.2°
Drops below altitude 10° 02:41:22 10° 13° (NNE) 2,509 6.7 -11.6°
Sets 02:44:04 0° 22° (NNE) 3,447 7.9 -11.3°
